This demonstration page uses our WeatherBlox Daily Observations layout. Learn more.

Left ArrowRight Arrow

Hourly Observations for August 16, 2020

Temp ( °F °C ) Dew Point ( °F °C ) Humidity (%) Winds ( mph kmh ) Pressure ( in mb ) Visibility ( mi km ) Precip ( " mm )
12:15 am 00:15 Clear 67 19.4 59 14.9 75 75 SSE 7 11 30.04 1017 10 16 N/A
12:35 am 00:35 Clear 67 19.2 59 14.9 76 76 SSE 7 11 30.04 1017 10 16 N/A
12:55 am 00:55 Clear 67 19.7 59 14.8 73 73 S 7 11 30.05 1018 10 16 N/A
1:15 am 01:15 Clear 68 20 57 14 69 69 SSE 8 13 30.06 1018 10 16 N/A
1:35 am 01:35 Clear 67 19.5 57 14 71 71 SE 7 11 30.05 1018 10 16 N/A
1:55 am 01:55 Clear 67 19.5 57 14 71 71 SSE 3 6 30.05 1018 10 16 N/A
2:15 am 02:15 Clear 66 18.9 57 14.1 74 74 SSE 6 9 30.06 1018 10 16 N/A
2:35 am 02:35 Clear 66 18.9 58 14.3 75 75 S 5 7 30.06 1018 10 16 N/A
2:55 am 02:55 Clear 65 18.5 58 14.5 78 78 S 6 9 30.05 1018 10 16 N/A
3:15 am 03:15 Clear 65 18.2 58 14.5 79 79 N N/A 30.05 1018 10 16 N/A
3:35 am 03:35 Clear 64 17.6 58 14.5 82 82 SE 3 6 30.07 1018 10 16 N/A
3:55 am 03:55 Partly Cloudy 63 17 59 14.8 87 87 E 5 7 30.07 1018 10 16 N/A
4:15 am 04:15 Partly Cloudy 62 16.8 58 14.7 88 88 ESE 3 6 30.08 1019 10 16 N/A
4:35 am 04:35 Mostly Cloudy 63 17.1 59 15.2 89 89 E 7 11 30.10 1019 10 16 N/A
4:55 am 04:55 Mostly Cloudy 64 17.9 59 15 83 83 ESE 5 7 30.08 1019 10 16 N/A
5:15 am 05:15 Partly Cloudy 63 17.1 59 15 88 88 N N/A 30.07 1018 10 16 N/A
5:35 am 05:35 Mostly Cloudy 63 17.3 60 15.6 90 90 E 5 7 30.10 1019 10 16 N/A
5:55 am 05:55 Partly Cloudy 64 17.5 60 15.5 88 88 ESE 6 9 30.10 1019 10 16 N/A
6:15 am 06:15 Clear 63 17 60 15.4 90 90 SE 5 7 30.09 1019 10 16 N/A
6:35 am 06:35 Clear 63 17.1 60 15.3 89 89 ESE 3 6 30.09 1019 10 16 N/A
6:55 am 06:55 Sunny 63 17.1 59 15.2 89 89 SE 3 6 30.10 1019 10 16 N/A
7:15 am 07:15 Sunny 63 17 59 15.1 89 89 SE 3 6 30.10 1019 10 16 N/A
7:35 am 07:35 Sunny 63 17.3 60 15.5 89 89 SSE 3 6 30.11 1020 10 16 N/A
7:55 am 07:55 Sunny 64 17.7 60 15.6 88 88 SSE 6 9 30.11 1020 10 16 N/A
8:15 am 08:15 Sunny 66 18.8 60 15.5 81 81 SSE 9 15 30.11 1020 10 16 N/A
8:35 am 08:35 Sunny 68 20 60 15.5 75 75 SSE 8 13 30.10 1019 10 16 N/A
8:55 am 08:55 Sunny 70 20.9 60 15.5 71 71 S 9 15 30.09 1019 10 16 N/A
9:15 am 09:15 Sunny 71 21.8 60 15.7 68 68 SSE 9 15 30.08 1019 10 16 N/A
9:35 am 09:35 Sunny 73 22.7 62 16.8 69 69 S 12 19 30.07 1018 10 16 N/A
9:55 am 09:55 Partly Cloudy 74 23.1 62 16.7 67 67 S 7 11 30.06 1018 10 16 N/A
10:15 am 10:15 Partly Cloudy 76 24.2 63 17.4 66 66 S 10 17 30.05 1018 10 16 N/A
10:35 am 10:35 Partly Cloudy 76 24.2 64 17.5 66 66 S 8 13 30.04 1017 10 16 N/A
10:55 am 10:55 Sunny 77 24.9 64 17.6 64 64 S 10 17 30.03 1017 10 16 N/A
11:15 am 11:15 Sunny 76 24.6 65 18.3 68 68 SSE 7 11 30.06 1018 10 16 N/A
11:35 am 11:35 Sunny 79 25.9 65 18.2 63 63 S 10 17 30.05 1018 10 16 N/A
11:55 am 11:55 Sunny 79 26 65 18.2 62 62 S 10 17 30.04 1017 10 16 N/A
12:15 pm 12:15 Partly Cloudy 80 26.7 65 18.6 61 61 S 12 19 30.02 1017 10 16 N/A
12:35 pm 12:35 Sunny 82 27.7 67 19.5 61 61 S 10 17 30.01 1016 10 16 N/A
12:55 pm 12:55 Sunny 83 28.5 68 19.8 59 59 S 9 15 30.00 1016 10 16 N/A
1:15 pm 13:15 Sunny 86 29.8 68 20.1 56 56 SW 7 11 29.99 1016 10 16 N/A
1:35 pm 13:35 Sunny 86 30.2 69 20.6 56 56 SW 10 17 29.97 1015 10 16 N/A
1:55 pm 13:55 Sunny 88 30.9 70 21 56 56 SW 7 11 29.96 1015 10 16 N/A
2:15 pm 14:15 Sunny 88 31 70 21.1 56 56 S 9 15 29.96 1015 10 16 N/A
2:35 pm 14:35 Sunny 88 31.2 69 20.7 54 54 S 8 13 29.96 1014 10 16 N/A
2:55 pm 14:55 Sunny 89 31.5 70 21 54 54 S 8 13 29.97 1015 10 16 N/A
3:15 pm 15:15 Sunny 89 31.9 69 20.7 52 52 SSW 7 11 29.94 1014 10 16 N/A
3:35 pm 15:35 Sunny 89 31.9 69 20.7 52 52 S 7 11 29.92 1013 10 16 N/A
3:55 pm 15:55 Sunny 88 31.1 70 21.3 56 56 SSE 7 11 29.93 1013 10 16 N/A
4:15 pm 16:15 Sunny 88 31 70 21 55 55 SSW 3 6 29.92 1013 10 16 N/A
4:35 pm 16:35 Sunny with Nearby Thunderstorms 87 30.5 71 21.6 59 59 SSE 3 6 29.92 1013 10 16 N/A
4:55 pm 16:55 Sunny with Nearby Thunderstorms 86 30.2 72 22.1 62 62 SSE 3 6 29.91 1013 10 16 N/A
5:15 pm 17:15 Sunny with Nearby Thunderstorms 86 30 72 22.1 63 63 SSE 3 6 29.90 1012 10 16 N/A
5:35 pm 17:35 Sunny with Nearby Thunderstorms 86 29.9 72 22 63 63 N N/A 29.91 1013 10 16 N/A
5:55 pm 17:55 Sunny with Thunderstorms 86 29.8 71 21.7 62 62 S 3 6 29.89 1012 10 16 N/A
6:15 pm 18:15 Sunny 86 30 71 21.5 60 60 S 12 19 29.93 1013 10 16 N/A
6:35 pm 18:35 Sunny 79 25.9 62 16.7 57 57 SSW 12 19 29.97 1015 10 16 N/A
6:55 pm 18:55 Partly Cloudy 77 25 61 16.1 58 58 SW 14 22 29.99 1015 10 16 N/A
7:15 pm 19:15 Mostly Cloudy 77 25 60 15.4 55 55 WSW 12 19 29.97 1015 10 16 N/A
7:35 pm 19:35 Partly Cloudy 77 25.2 59 15.1 54 54 W 13 20 29.96 1015 10 16 N/A
7:55 pm 19:55 Partly Cloudy with Light Rain 76 24.6 59 15 55 55 WNW 7 11 29.97 1015 10 16 N/A
8:15 pm 20:15 Partly Cloudy with Light Rain 75 23.7 60 15.6 61 61 NW 3 6 29.97 1015 10 16 N/A
8:35 pm 20:35 Mostly Cloudy with Light Rain 71 21.8 64 18 79 79 NNE 12 19 30.04 1017 10 16 N/A
8:55 pm 20:55 Partly Cloudy with Light Rain 71 21.8 63 17.2 75 75 N 5 7 30.04 1017 10 16 N/A
9:15 pm 21:15 Partly Cloudy 73 22.5 63 17 71 71 NW 6 9 30.06 1018 10 16 N/A
9:35 pm 21:35 Partly Cloudy 73 23 62 16.9 69 69 NW 6 9 30.07 1018 10 16 N/A
9:55 pm 21:55 Partly Cloudy 72 22.3 63 17.3 73 73 N 5 7 30.07 1018 10 16 N/A
10:15 pm 22:15 Clear 70 20.9 64 18 84 84 N 8 13 30.11 1020 10 16 N/A
10:35 pm 22:35 Clear 70 21.3 63 17.2 78 78 N 5 7 30.09 1019 10 16 N/A
10:55 pm 22:55 Clear 69 20.6 64 17.5 83 83 N 5 7 30.10 1019 10 16 N/A
11:15 pm 23:15 Clear 71 21.6 62 16.9 75 75 ESE 6 9 30.12 1020 10 16 N/A
11:35 pm 23:35 Clear 68 20 63 17 83 83 SE 6 9 30.12 1020 10 16 N/A
11:55 pm 23:55 Clear 67 19.3 63 17 87 87 SSE 3 6 30.12 1020 10 16 N/A

Powered by AerisWeather